RH
97 97 88 83 74 62 58 53 48 36 30 29 28 29 29 29 29 30 32 32 31 31 35 36 36 36 41
90 86 79 70 66 61 50 40 34 31 27 23 22 23 23 25 29 29 30 30 31 33 35 34 36 36 36
83 72 63 57 49 40 36 33 28 23 23 25 24 25 24 24 27 29 28 28 28 29 30 30 32 34 36
68 59 48 41 38 33 30 24 21 23 25 26 25 25 26 27 26 27 28 29 30 33 37 37 37 39 42
42 37 33 29 29 26 23 25 26 25 26 27 28 29 32 33 34 35 35 36 37 40 44 46 50 50 50
28 27 27 25 22 22 28 30 30 28 30 34 35 34 34 35 35 36 36 39 42 50 53 55 58 58 56
24 23 22 19 20 26 29 31 32 33 37 35 36 33 34 33 36 37 38 41 45 54 63 68 70 68 65
18 16 16 23 29 31 33 36 39 41 40 36 39 36 36 35 38 42 46 47 50 58 64 67 68 70 72
13 17 24 28 32 36 42 45 42 40 46 50 47 41 36 36 40 45 50 54 55 58 62 66 70 70 68
23 28 33 37 43 46 46 44 46 53 58 58 57 54 47 40 42 47 50 56 60 60 60 60 60 61 60
33 37 42 47 49 48 47 49 60 62 65 65 62 64 65 60 59 59 60 59 59 60 63 63 62 63 61
39 44 49 51 50 49 51 59 64 66 68 70 69 70 70 71 72 73 74 74 74 73 75 78 79 80 80
43 48 50 51 52 49 53 60 65 69 70 72 74 76 77 78 79 78 75 78 79 81 82 82 81 83 84
46 49 51 54 56 55 53 57 59 66 69 72 77 80 82 85 85 79 81 82 80 80 80 84 83 82 86
47 50 54 58 61 63 62 60 63 63 65 72 78 82 86 89 84 83 80 79 80 82 84 85 84 83 88
49 53 57 59 61 64 66 65 61 63 65 70 74 80 86 90 90 84 83 83 87 87 88 90 89 91 90
52 55 57 59 61 63 65 66 66 58 59 66 72 82 83 83 89 90 84 85 87 87 89 91 91 91 91